CW6697 Weather Reports


time (UTC)temp
F
wind
direction
speed
knots
gust
knots
rain 1hr
in
rain 24hr
in
rain mn
in
humidity
%
barometer
mb
20260505102021 49 113 0.0 1.7 0.00 0.00 0.00 73 1012.0
20260505101520 49 157 0.0 1.7 0.00 0.00 0.00 73 1012.2
20260505101016 49 109 0.9 1.7 0.00 0.00 0.00 73 1012.1
20260505100513 49 109 0.9 1.7 0.00 0.00 0.00 73 1012.1
20260505100010 50 224 0.0 1.7 0.00 0.00 0.00 71 1012.4
20260505095505 50 66 0.0 0.9 0.00 0.00 0.00 71 1012.2
20260505095001 49 212 0.0 0.9 0.00 0.00 0.00 73 1011.9
20260505094459 49 89 0.0 0.9 0.00 0.00 0.00 74 1012.0
20260505093955 49 79 0.0 1.7 0.00 0.00 0.00 74 1012.2
20260505093451 49 135 0.0 1.7 0.00 0.00 0.00 73 1012.1
20260505092949 49 69 0.0 1.7 0.00 0.00 0.00 73 1012.1
20260505092446 49 96 0.0 1.7 0.00 0.00 0.00 72 1012.0
20260505091944 49 119 0.0 0.9 0.00 0.00 0.00 73 1012.0
20260505091441 49 47 0.0 0.9 0.00 0.00 0.00 73 1012.1
20260505090939 49 84 1.7 1.7 0.00 0.00 0.00 73 1011.7
20260505090437 50 102 0.0 2.6 0.00 0.00 0.00 73 1012.0
20260505085934 50 72 0.0 1.7 0.00 0.00 0.00 72 1012.0
20260505085432 50 110 0.9 0.9 0.00 0.00 0.00 70 1012.1
20260505084930 50 200 0.0 0.9 0.00 0.00 0.00 71 1011.8
20260505084428 50 89 0.9 1.7 0.00 0.00 0.00 71 1011.9
20260505083925 50 252 0.0 2.6 0.00 0.00 0.00 72 1011.7
20260505083423 50 49 0.0 1.7 0.00 0.00 0.00 73 1011.8
20260505082919 50 85 0.0 0.9 0.00 0.00 0.00 72 1011.8
20260505082414 50 76 0.0 1.7 0.00 0.00 0.00 73 1011.9
20260505081912 50 113 0.0 1.7 0.00 0.00 0.00 74 1011.9
20260505081409 50 130 0.0 0.9 0.00 0.00 0.00 71 1012.1
20260505080905 50 160 0.0 1.7 0.00 0.00 0.00 71 1011.9
20260505080401 50 96 0.0 0.9 0.00 0.00 0.00 70 1011.7
20260505075856 50 76 1.7 1.7 0.00 0.00 0.00 69 1011.8
20260505075354 51 130 0.0 1.7 0.00 0.00 0.00 70 1011.7
20260505074851 51 38 0.9 1.7 0.00 0.00 0.00 68 1011.7
20260505074348 51 145 0.0 1.7 0.00 0.00 0.00 69 1011.7
20260505073845 51 46 0.9 1.7 0.00 0.00 0.00 70 1011.9
20260505073343 52 103 0.9 1.7 0.00 0.00 0.00 67 1011.7
20260505072840 52 113 0.0 0.0 0.00 0.00 0.00 66 1011.9
20260505072336 52 68 0.9 1.7 0.00 0.00 0.00 66 1011.4
20260505071832 52 246 0.0 0.0 0.00 0.00 0.00 65 1011.3
20260505071328 52 76 0.0 0.9 0.00 0.00 0.00 66 1011.3
20260505070827 52 157 0.0 0.0 0.00 0.00 0.00 66 1011.4
20260505070323 52 157 0.0 1.7 0.00 0.00 0.00 67 1011.2
20260505065818 52 66 0.0 0.9 0.00 0.00 0.00 66 1011.2
20260505065315 52 49 0.0 0.9 0.00 0.00 0.00 67 1011.2
20260505064812 53 55 0.0 0.9 0.00 0.00 0.00 66 1010.8
20260505064309 52 212 0.0 1.7 0.00 0.00 0.00 66 1011.1
20260505063808 53 103 0.0 1.7 0.00 0.00 0.00 67 1011.0
20260505063303 53 96 0.9 1.7 0.00 0.00 0.00 64 1010.9
20260505062800 54 105 0.9 1.7 0.00 0.00 0.00 62 1010.7
20260505062257 54 32 0.0 0.9 0.00 0.00 0.00 62 1011.1
20260505061754 54 55 0.9 1.7 0.00 0.00 0.00 60 1010.9
20260505061252 54 137 0.0 0.9 0.00 0.00 0.00 60 1010.7
20260505060749 55 279 0.0 1.7 0.00 0.00 0.00 60 1010.7
20260505060246 56 230 0.0 0.0 0.00 0.00 0.00 58 1010.9
20260505055741 56 282 0.0 0.9 0.00 0.00 0.00 58 1010.8
20260505055238 55 124 0.0 0.9 0.00 0.00 0.00 58 1010.7
20260505054736 56 218 0.0 0.9 0.00 0.00 0.00 58 1010.8
20260505054228 55 224 0.0 2.6 0.00 0.00 0.00 59 1010.7
20260505053726 55 31 0.9 1.7 0.00 0.00 0.00 60 1010.6
20260505053222 55 230 0.0 0.9 0.00 0.00 0.00 59 1010.6
20260505052720 55 89 0.0 0.0 0.00 0.00 0.00 60 1010.7
20260505052216 55 81 0.9 0.9 0.00 0.00 0.00 60 1010.6
20260505051714 56 57 0.0 0.0 0.00 0.00 0.00 59 1010.4
20260505051211 56 41 0.9 1.7 0.00 0.00 0.00 61 1010.4
20260505050703 57 257 0.0 0.9 0.00 0.00 0.00 57 1010.4
20260505050201 57 37 0.0 0.9 0.00 0.00 0.00 59 1010.4
20260505041630 57 72 0.0 1.7 0.00 0.00 0.00 61 1009.7
20260505041128 58 111 0.0 0.9 0.00 0.00 0.00 60 1009.6
20260505040624 58 130 0.0 1.7 0.00 0.00 0.00 58 1009.4
20260505040122 59 4 0.0 0.9 0.00 0.00 0.00 61 1009.3
20260505035618 59 89 0.0 0.9 0.00 0.00 0.00 57 1009.3
20260505035114 59 142 0.0 0.9 0.00 0.00 0.00 58 1009.2
20260505034611 60 70 0.0 2.6 0.00 0.00 0.00 56 1009.1
20260505034108 60 70 0.9 1.7 0.00 0.00 0.00 54 1008.9
20260505033604 61 238 0.0 0.9 0.00 0.00 0.00 54 1009.0
20260505033103 61 37 0.0 1.7 0.00 0.00 0.00 54 1008.7
20260505032600 62 251 0.0 1.7 0.00 0.00 0.00 56 1008.8
20260505032057 62 186 0.0 0.0 0.00 0.00 0.00 51 1008.4
20260505031554 64 50 0.0 1.7 0.00 0.00 0.00 49 1008.4
20260505031050 64 352 1.7 1.7 0.00 0.00 0.00 50 1008.5
20260505030548 65 289 0.9 1.7 0.00 0.00 0.00 47 1008.3
20260505030043 66 269 0.0 1.7 0.00 0.00 0.00 44 1008.3
20260505025539 66 267 0.0 1.7 0.00 0.00 0.00 44 1008.4
20260505025038 66 351 0.9 1.7 0.00 0.00 0.00 44 1008.3
20260505024535 67 309 0.0 1.7 0.00 0.00 0.00 42 1008.3
20260505024032 67 269 0.0 0.9 0.00 0.00 0.00 43 1008.2
20260505023529 68 275 1.7 2.6 0.00 0.00 0.00 42 1008.0
20260505023027 69 266 1.7 3.5 0.00 0.00 0.00 42 1008.0
20260505022524 69 269 0.0 1.7 0.00 0.00 0.00 40 1007.9
20260505022021 69 309 0.0 1.7 0.00 0.00 0.00 39 1008.0
20260505021518 70 280 0.9 2.6 0.00 0.00 0.00 39 1008.0
20260505021014 71 246 0.0 1.7 0.00 0.00 0.00 36 1007.9
20260505020509 72 261 1.7 2.6 0.00 0.00 0.00 38 1008.2
20260505020007 73 271 0.9 2.6 0.00 0.00 0.00 34 1008.0
20260505015503 74 343 0.0 4.3 0.00 0.00 0.00 32 1007.9
20260505015000 73 228 0.9 3.5 0.00 0.00 0.00 38 1008.2
20260505014457 74 239 1.7 2.6 0.00 0.00 0.00 35 1007.9
20260505013955 75 269 0.0 1.7 0.00 0.00 0.00 35 1007.9
20260505013451 75 6 0.0 3.5 0.00 0.00 0.00 37 1007.8
20260505012949 74 261 1.7 2.6 0.00 0.00 0.00 38 1007.9
20260505012447 74 269 0.0 2.6 0.00 0.00 0.00 40 1007.9
20260505011943 75 244 1.7 3.5 0.00 0.00 0.00 31 1007.8
20260505011439 75 274 1.7 1.7 0.00 0.00 0.00 35 1007.8
20260505010936 75 268 3.5 3.5 0.00 0.00 0.00 33 1007.9
20260505010432 76 251 0.9 2.6 0.00 0.00 0.00 38 1007.8
20260505005928 77 273 1.7 4.3 0.00 0.00 0.00 29 1007.9
20260505005425 76 278 2.6 7.0 0.00 0.00 0.00 29 1008.2
20260505004923 75 253 0.9 4.3 0.00 0.00 0.00 36 1007.9
20260505004419 73 241 1.7 1.7 0.00 0.00 0.00 40 1007.9
20260505003916 73 307 0.9 2.6 0.00 0.00 0.00 43 1008.0
20260505003413 73 243 1.7 2.6 0.00 0.00 0.00 40 1008.0
20260505002909 74 273 1.7 2.6 0.00 0.00 0.00 41 1007.8
20260505002406 75 250 0.9 1.7 0.00 0.00 0.00 35 1007.8
20260505001904 75 245 0.9 1.7 0.00 0.00 0.00 34 1008.2
20260505001402 76 258 1.7 1.7 0.00 0.00 0.00 37 1008.2
20260505000859 76 261 0.9 1.7 0.00 0.00 0.00 34 1008.2
20260505000358 77 252 0.9 1.7 0.00 0.00 0.00 35 1007.8
20260504235853 77 286 0.9 2.6 0.00 0.00 0.00 30 1007.8
20260504235350 78 304 0.9 2.6 0.00 0.00 0.00 31 1008.2
20260504234846 78 293 1.7 5.2 0.00 0.00 0.00 28 1008.3
20260504234344 78 250 1.7 5.2 0.00 0.00 0.00 31 1008.2
20260504233840 79 276 0.9 1.7 0.00 0.00 0.00 32 1008.0
20260504233336 79 259 1.7 5.2 0.00 0.00 0.00 27 1008.3
20260504232833 79 268 0.9 1.7 0.00 0.00 0.00 29 1008.2
20260504232330 79 328 0.0 4.3 0.00 0.00 0.00 28 1007.9
20260504231827 79 247 1.7 4.3 0.00 0.00 0.00 27 1007.9
20260504231323 80 267 2.6 3.5 0.00 0.00 0.00 26 1008.2
20260504230819 80 123 0.0 3.5 0.00 0.00 0.00 25 1008.2
20260504230318 81 319 1.7 4.3 0.00 0.00 0.00 26 1008.4
20260504225816 82 243 1.7 5.2 0.00 0.00 0.00 25 1008.2
20260504225312 82 257 1.7 1.7 0.00 0.00 0.00 25 1008.2
20260504224810 82 253 1.7 5.2 0.00 0.00 0.00 27 1008.4
20260504224306 80 229 3.5 5.2 0.00 0.00 0.00 25 1007.9
20260504223803 82 290 1.7 8.7 0.00 0.00 0.00 25 1008.0
20260504223258 81 292 1.7 1.7 0.00 0.00 0.00 26 1008.3
20260504222755 80 354 2.6 3.5 0.00 0.00 0.00 27 1008.6
20260504222252 81 335 1.7 4.3 0.00 0.00 0.00 25 1008.2
20260504221750 82 311 1.7 3.5 0.00 0.00 0.00 25 1008.4
20260504221247 82 75 0.0 3.5 0.00 0.00 0.00 24 1008.4
20260504220743 80 51 0.9 2.6 0.00 0.00 0.00 28 1008.7
20260504220241 81 308 0.9 2.6 0.00 0.00 0.00 27 1008.6
20260504215738 82 301 1.7 4.3 0.00 0.00 0.00 25 1008.5
20260504215234 80 226 3.5 8.7 0.00 0.00 0.00 25 1008.5
20260504214730 80 309 1.7 2.6 0.00 0.00 0.00 27 1008.8
20260504214227 81 1 1.7 2.6 0.00 0.00 0.00 27 1008.8
20260504213724 81 326 0.0 4.3 0.00 0.00 0.00 26 1008.8
20260504213220 80 300 0.9 5.2 0.00 0.00 0.00 25 1008.8
20260504212717 81 299 0.0 7.0 0.00 0.00 0.00 26 1008.7
20260504212214 84 105 0.9 3.5 0.00 0.00 0.00 23 1009.0
20260504211711 84 230 2.6 4.3 0.00 0.00 0.00 23 1008.8
20260504211207 82 238 0.0 5.2 0.00 0.00 0.00 24 1008.8
20260504210704 83 259 1.7 4.3 0.00 0.00 0.00 25 1008.8
20260504210201 83 313 1.7 2.6 0.00 0.00 0.00 23 1009.0
20260504205658 85 0 0.9 3.5 0.00 0.00 0.00 22 1009.1
20260504205155 85 292 1.7 6.1 0.00 0.00 0.00 23 1008.9
20260504204654 85 63 1.7 3.5 0.00 0.00 0.00 21 1008.8
20260504204153 85 33 1.7 4.3 0.00 0.00 0.00 25 1009.1
20260504203651 84 237 2.6 3.5 0.00 0.00 0.00 22 1009.1
20260504203149 83 111 0.0 2.6 0.00 0.00 0.00 22 1009.1
20260504202648 84 199 1.7 3.5 0.00 0.00 0.00 24 1009.2
20260504202145 83 256 1.7 3.5 0.00 0.00 0.00 25 1009.3
20260504201642 82 260 1.7 4.3 0.00 0.00 0.00 25 1009.3
20260504201140 84 201 1.7 4.3 0.00 0.00 0.00 22 1009.3
20260504200637 83 314 0.0 5.2 0.00 0.00 0.00 23 1009.4
20260504200133 82 307 1.7 6.1 0.00 0.00 0.00 23 1009.6
20260504195630 82 60 1.7 5.2 0.00 0.00 0.00 24 1009.5
20260504195126 83 17 1.7 2.6 0.00 0.00 0.00 24 1009.5
20260504194623 82 37 1.7 4.3 0.00 0.00 0.00 23 1009.6
20260504194119 82 262 1.7 3.5 0.00 0.00 0.00 23 1009.7
20260504193615 82 214 3.5 4.3 0.00 0.00 0.00 22 1009.6
20260504193114 82 146 0.0 3.5 0.00 0.00 0.00 22 1009.6
20260504192611 82 27 1.7 5.2 0.00 0.00 0.00 24 1009.7
20260504192109 83 275 2.6 3.5 0.00 0.00 0.00 23 1009.6
20260504191608 82 238 2.6 5.2 0.00 0.00 0.00 24 1009.9
20260504191103 81 224 3.5 9.6 0.00 0.00 0.00 24 1010.0
20260504190559 82 209 2.6 5.2 0.00 0.00 0.00 24 1010.1
20260504190055 82 291 1.7 7.0 0.00 0.00 0.00 24 1010.4
20260504185553 82 337 1.7 4.3 0.00 0.00 0.00 23 1010.2
20260504185049 80 296 2.6 7.0 0.00 0.00 0.00 26 1010.3
20260504184545 81 280 2.6 6.1 0.00 0.00 0.00 24 1010.4
20260504184040 81 315 1.7 7.0 0.00 0.00 0.00 27 1010.3
20260504183537 81 248 2.6 4.3 0.00 0.00 0.00 25 1010.2
20260504183036 80 286 1.7 4.3 0.00 0.00 0.00 26 1010.5
20260504182532 80 238 3.5 5.2 0.00 0.00 0.00 26 1010.5
20260504182030 80 258 3.5 6.1 0.00 0.00 0.00 24 1010.7
20260504181526 80 315 0.0 5.2 0.00 0.00 0.00 26 1010.4
20260504181025 80 344 1.7 3.5 0.00 0.00 0.00 25 1010.5
20260504180523 80 135 1.7 7.0 0.00 0.00 0.00 30 1010.5
20260504180022 80 238 1.7 7.0 0.00 0.00 0.00 26 1010.6
20260504175519 79 238 1.7 7.0 0.00 0.00 0.00 25 1010.6
20260504175016 79 132 0.9 4.3 0.00 0.00 0.00 28 1010.6
20260504174514 78 337 2.6 7.8 0.00 0.00 0.00 26 1010.5
20260504174010 79 259 2.6 7.0 0.00 0.00 0.00 25 1010.9
20260504173507 80 325 1.7 3.5 0.00 0.00 0.00 26 1010.8
20260504173005 79 342 3.5 3.5 0.00 0.00 0.00 26 1010.8
20260504172501 78 222 1.7 4.3 0.00 0.00 0.00 24 1011.0
20260504171957 78 264 0.9 5.2 0.00 0.00 0.00 26 1011.0
20260504171454 78 207 1.7 3.5 0.00 0.00 0.00 27 1010.9
20260504170951 78 294 0.0 3.5 0.00 0.00 0.00 26 1011.0
20260504170447 77 311 0.0 2.6 0.00 0.00 0.00 27 1011.0
20260504160407 69 301 1.7 3.5 0.00 0.00 0.00 36 1011.6
20260504150831 61 32 1.7 3.5 0.00 0.00 0.00 52 1011.8
20260504150327 60 37 0.0 2.6 0.00 0.00 0.00 54 1012.0
20260504141258 50 79 1.7 2.6 0.00 0.00 0.00 74 1012.1
20260504140754 49 101 1.7 1.7 0.00 0.00 0.00 75 1012.0
20260504140250 48 57 1.7 2.6 0.00 0.00 0.00 78 1012.2
20260504130719 46 100 1.7 2.6 0.00 0.00 0.00 74 1011.8
20260504130214 46 107 1.7 2.6 0.00 0.00 0.00 74 1011.8
20260504120138 46 111 0.9 2.6 0.00 0.00 0.00 73 1011.8
20260504110606 47 72 0.0 1.7 0.00 0.00 0.00 72 1011.8